Location: Unspecified
(0.0000°N, 0.0000°E)
Time: 21:00:57
(UTC+00:00)

CZ-3C DEB - Pass Details

Date: 07 March 2026
Orbit: 440 x 28021 km, 21.3° (Epoch: 10 April)

Event Time Altitude Azimuth Distance (km) Brightness Sun altitude
Exits shadow 03:55:15 17° 198° (SSW) 3,055 ? -33.8°
Drops below altitude 10° 03:58:02 10° 169° (S) 2,766 ? -33.1°
Sets 04:00:32 0° 145° (SE) 3,074 ? -32.5°
